Location: ?
(35.4554°N, 139.3092°E)
Time: 21:46:26
(UTC+00:00)

Cosmos 1943 Rocket - Pass Details

Date: 21 April 2021
Orbit: 812 x 843 km, 71.0° (Epoch: 10 May)

Event Time Altitude Azimuth Distance (km) Brightness Sun altitude
Exits shadow 16:42:55 33° 84° (E) 1,395 3.5 -34.4°
Drops below altitude 10° 16:47:03 10° 40° (NE) 2,461 5.4 -33.9°
Sets 16:49:40 0° 32° (NNE) 3,397 6.4 -33.6°
